ARIANE 44LP DEB, 25928

Orbit data source: Space-Track

ARIANE 44LP DEB, 25928 is space debris in HEO originally from a launch on Sat, 02 Mar 1991 UTC launched from the French Guiana (FRGUI). Debris objects in space refer to the collection of defunct objects orbiting the Earth. Examples of debris include non-operational satellites, rocket bodies, and fragments generated from explosions, collisions, or faulty payload assembly.

Loading next visibility...
Identifier
25928, 1991-015J
Orbit
HEO
Country
Flag of FRFR
Related business
Manufacturer
Unknown
Mission
Spacecraft
Bus & Motor
Unknown
Mass
Unknown
Launch date (UTC)
1991-03-02 (35 years ago)
Launch vehicle
Unknown
Launch site
French Guiana (FRGUI)
Object type
Payload
Rocket body
Debris
Shape & HBR
Unknown shape, 0.6 m
Radar Cross Section
Medium (>0.1 m² and <1 m²)

Expand to show TLE details & history
Last TLE update: 1 day ago

TLE from 1 day ago
0 ARIANE 44LP DEB
1 25928U 91015J   25348.53820002  .00001600  00000-0  96260-2 0  9996
2 25928   8.0705   9.3650 6660903 261.7276  55.0166  2.92015848293783
Epoch: 2025-12-14T12:55Z
TLE epoch observation values (Epoch: 2025-12-14T12:55:00.481Z)
Latitude
4.7337°
Longitude
127.75202°
Altitude
15,068.598 km
Speed
4.23 km/s
True Right ascension
02h 59m 48s
True Declination
4° 43' 28"
Sunlit
Object was in daylight at epoch
Visualization orbit readout
Latitude
Unknown
Longitude
Unknown
Altitude
Unknown
Speed
Unknown
Apparent Right ascension
Unknown
Apparent Declination
Unknown
Sunlit
N/A
Visualization observer readout
Local Sidereal Time
13:23:50
Azimuth
Unknown
Elevation
Unknown
Doppler factor
Unknown
Orbital elements
Apogee altitude
28,078.086 km
Perigee altitude
527.411 km
Semi-major axis
20,680.886 km
Eccentricity
0.66609
Inclination
8.0705°
RAAN
9.365°
Arg. of periapsis
261.7276°
True anomaly
134.05485°
Mean anomaly
55.0166°
Eccentric anomaly
93.12405°
Mean motion
0.72978 °/min
Orbital period
493.3 mins
BSTAR
0.009626
Loading maneuver chart data...
Computing Atmospheric mass density...

Documentation

Showing up to 5 results
|